{"data":{"norad_id":65053,"epoch":"2026-09-21T22:16:18.542496Z","epoch_age_seconds":45158,"freshness":"FRESH","line1":"1 65053U 25163A   26264.92799239  .00000121  00000+0  49634-4 0  9999","line2":"2 65053  98.4055  91.1898 0001238  88.6082 271.5249 14.42504880 60332","mean_motion":14.4250488,"eccentricity":0.0001238,"inclination_deg":98.4055,"raan_deg":91.1898,"arg_perigee_deg":88.6082,"mean_anomaly_deg":271.5249,"bstar":4.9634e-5,"rev_number":6033,"period_min":99.826352060591,"perigee_km":749.351823483,"apogee_km":751.1168082208,"semimajor_km":7128.3713158519,"source":"CELESTRAK","updated_at":"2026-09-22T09:00:30.092499Z"}}